UAL1440 KSYR-KPHL

Flight info

Callsign UAL1440
Flight time N/A
Altitude 30000
Route SYR CFB/N0416F290 LVZ SPUDS7
Aircraft F28/M-SDFIRWY/H

Departure

Time 2026-05-07 22:20
Airport Syracuse Hancock International Airport (KSYR)

Arrival

Time N/A
Airport Philadelphia International Airport (KPHL)
Time Latitude Longitude Altitude Speed Heading
2026-05-07 21:51 43.11446 -76.10969 415 ft 0 kts 322°
2026-05-07 22:13 43.11440 -76.10963 420 ft 2 kts 321°
2026-05-07 22:13 43.11430 -76.10953 411 ft 2 kts 333°
2026-05-07 22:13 43.11418 -76.10947 410 ft 2 kts 350°
2026-05-07 22:14 43.11406 -76.10947 415 ft 2 kts
2026-05-07 22:14 43.11395 -76.10954 419 ft 2 kts 63°
2026-05-07 22:14 43.11395 -76.10951 419 ft 0 kts 76°
2026-05-07 22:15 43.11396 -76.10947 418 ft 3 kts 76°
2026-05-07 22:15 43.11399 -76.10903 416 ft 7 kts 86°
2026-05-07 22:16 43.11403 -76.10796 418 ft 19 kts 87°
2026-05-07 22:16 43.11410 -76.10599 418 ft 21 kts 87°
2026-05-07 22:16 43.11379 -76.10467 413 ft 15 kts 135°
2026-05-07 22:16 43.11287 -76.10336 417 ft 20 kts 134°
2026-05-07 22:17 43.11193 -76.10201 416 ft 20 kts 134°
2026-05-07 22:17 43.11094 -76.10062 414 ft 15 kts 134°
2026-05-07 22:17 43.11019 -76.09957 412 ft 16 kts 134°
2026-05-07 22:17 43.10937 -76.09839 415 ft 17 kts 133°
2026-05-07 22:18 43.10854 -76.09721 418 ft 18 kts 134°
2026-05-07 22:18 43.10681 -76.09475 416 ft 17 kts 132°
2026-05-07 22:18 43.10642 -76.09366 426 ft 9 kts 66°
2026-05-07 22:19 43.10655 -76.09340 428 ft 5 kts 50°
2026-05-07 22:19 43.10693 -76.09299 430 ft 8 kts 17°
2026-05-07 22:19 43.10745 -76.09319 422 ft 10 kts 308°
2026-05-07 22:19 43.10932 -76.09588 421 ft 84 kts 313°
2026-05-07 22:20 43.11534 -76.10459 690 ft 151 kts 313°
2026-05-07 22:20 43.12288 -76.11572 1815 ft 166 kts 312°
2026-05-07 22:20 43.13009 -76.12852 3094 ft 175 kts 302°
2026-05-07 22:20 43.13646 -76.14305 4323 ft 178 kts 299°
2026-05-07 22:21 43.14314 -76.15894 4856 ft 214 kts 298°
2026-05-07 22:21 43.14916 -76.17881 5091 ft 235 kts 276°
2026-05-07 22:21 43.14600 -76.19979 6274 ft 221 kts 242°
2026-05-07 22:21 43.13499 -76.21293 7556 ft 214 kts 207°
2026-05-07 22:22 43.12037 -76.21447 9048 ft 211 kts 181°
2026-05-07 22:22 43.10602 -76.21135 10432 ft 208 kts 180°
2026-05-07 22:22 43.09147 -76.20783 11568 ft 213 kts 180°
2026-05-07 22:22 43.07668 -76.20444 12735 ft 219 kts 181°
2026-05-07 22:23 43.06171 -76.20144 13724 ft 225 kts 182°
2026-05-07 22:23 43.04606 -76.19880 14539 ft 227 kts 183°
2026-05-07 22:23 43.03033 -76.19650 15293 ft 227 kts 185°
2026-05-07 22:23 43.01455 -76.19450 15975 ft 227 kts 185°
2026-05-07 22:24 42.99870 -76.19275 16572 ft 228 kts 186°
2026-05-07 22:24 42.98286 -76.19124 17093 ft 228 kts 187°
2026-05-07 22:24 42.96725 -76.18985 17556 ft 228 kts 187°
2026-05-07 22:24 42.95148 -76.18849 18044 ft 227 kts 187°
2026-05-07 22:25 42.93559 -76.18716 18469 ft 228 kts 187°
2026-05-07 22:25 42.91978 -76.18588 18893 ft 227 kts 188°
2026-05-07 22:25 42.90411 -76.18460 19320 ft 227 kts 188°
2026-05-07 22:25 42.88829 -76.18335 19761 ft 228 kts 189°
2026-05-07 22:26 42.87244 -76.18205 20211 ft 228 kts 190°
2026-05-07 22:26 42.85665 -76.18078 20644 ft 228 kts 190°
2026-05-07 22:26 42.84077 -76.17946 21093 ft 228 kts 191°
2026-05-07 22:26 42.82493 -76.17814 21562 ft 228 kts 191°
2026-05-07 22:27 42.80908 -76.17679 21993 ft 229 kts 191°
2026-05-07 22:27 42.79337 -76.17552 22488 ft 228 kts 192°
2026-05-07 22:27 42.77750 -76.17413 22959 ft 229 kts 193°
2026-05-07 22:27 42.76153 -76.17275 23462 ft 230 kts 193°
2026-05-07 22:28 42.74552 -76.17132 23863 ft 230 kts 193°
2026-05-07 22:28 42.72954 -76.17002 24252 ft 230 kts 194°
2026-05-07 22:28 42.71362 -76.16877 24595 ft 233 kts 194°
2026-05-07 22:28 42.69733 -76.16744 24954 ft 235 kts 194°
2026-05-07 22:29 42.68090 -76.16619 25327 ft 235 kts 194°
2026-05-07 22:29 42.66448 -76.16506 25714 ft 236 kts 195°
2026-05-07 22:29 42.64796 -76.16391 26097 ft 238 kts 195°
2026-05-07 22:29 42.63158 -76.16272 26468 ft 239 kts 195°
2026-05-07 22:30 42.61483 -76.16146 26826 ft 241 kts 195°
2026-05-07 22:30 42.59802 -76.16012 27193 ft 242 kts 195°
2026-05-07 22:30 42.58109 -76.15889 27424 ft 246 kts 196°
2026-05-07 22:30 42.56391 -76.15779 27758 ft 248 kts 196°
2026-05-07 22:31 42.54685 -76.15672 28101 ft 249 kts 196°
2026-05-07 22:31 42.52944 -76.15563 28464 ft 251 kts 196°
2026-05-07 22:31 42.51196 -76.15451 28814 ft 252 kts 196°
2026-05-07 22:31 42.49434 -76.15331 29135 ft 254 kts 196°
2026-05-07 22:32 42.47657 -76.15208 29477 ft 256 kts 196°
2026-05-07 22:32 42.45866 -76.15084 29795 ft 258 kts 196°
2026-05-07 22:32 42.44064 -76.14968 29873 ft 266 kts 196°
2026-05-07 22:32 42.42179 -76.14863 29911 ft 276 kts 195°
2026-05-07 22:33 42.40284 -76.14768 29901 ft 287 kts 195°
2026-05-07 22:33 42.38258 -76.14667 29863 ft 299 kts 194°
2026-05-07 22:33 42.36155 -76.14565 29885 ft 309 kts 194°
2026-05-07 22:33 42.33989 -76.14456 29902 ft 320 kts 193°
2026-05-07 22:34 42.31744 -76.14348 29842 ft 330 kts 189°
2026-05-07 22:34 42.27036 -76.14113 29888 ft 347 kts 192°
2026-05-07 22:35 42.22097 -76.13799 29894 ft 364 kts 191°
2026-05-07 22:35 42.16945 -76.13202 29847 ft 388 kts 183°
2026-05-07 22:35 42.14258 -76.12412 29881 ft 401 kts 178°
2026-05-07 22:36 42.11532 -76.11322 29901 ft 412 kts 174°
2026-05-07 22:36 42.07012 -76.09154 29783 ft 413 kts 172°
2026-05-07 22:37 42.01440 -76.06209 29710 ft 391 kts 171°
2026-05-07 22:37 41.96527 -76.03599 29701 ft 373 kts 172°
2026-05-07 22:38 41.91772 -76.01135 29677 ft 359 kts 173°
2026-05-07 22:38 41.87173 -75.98801 29676 ft 347 kts 174°
2026-05-07 22:39 41.82735 -75.96529 29677 ft 339 kts 174°
2026-05-07 22:39 41.78372 -75.94327 29684 ft 330 kts 175°
2026-05-07 22:40 41.74134 -75.92193 29646 ft 323 kts 174°
2026-05-07 22:40 41.69955 -75.90106 29645 ft 318 kts 175°
2026-05-07 22:41 41.65842 -75.88046 29634 ft 313 kts 175°
2026-05-07 22:41 41.61794 -75.85998 29633 ft 309 kts 175°
2026-05-07 22:42 41.57823 -75.83969 29650 ft 305 kts 175°
2026-05-07 22:42 41.53875 -75.81967 29654 ft 301 kts 176°
2026-05-07 22:42 41.51910 -75.80990 29615 ft 300 kts 176°
2026-05-07 22:43 41.49975 -75.80034 29622 ft 298 kts 176°
2026-05-07 22:43 41.48017 -75.79065 29632 ft 297 kts 176°
2026-05-07 22:43 41.46116 -75.78114 29604 ft 296 kts 176°
2026-05-07 22:43 41.44191 -75.77142 29605 ft 295 kts 175°
2026-05-07 22:44 41.42275 -75.76161 29628 ft 294 kts 175°
2026-05-07 22:44 41.40358 -75.75195 29651 ft 292 kts 176°
2026-05-07 22:44 41.38456 -75.74244 29637 ft 291 kts 176°
2026-05-07 22:44 41.36559 -75.73299 29642 ft 290 kts 176°
2026-05-07 22:45 41.34671 -75.72359 29649 ft 289 kts 176°
2026-05-07 22:45 41.32810 -75.71432 29655 ft 288 kts 176°
2026-05-07 22:45 41.30932 -75.70494 29671 ft 288 kts 176°